MDT,Max TemperatureF,Mean TemperatureF,Min TemperatureF,Max Dew PointF,MeanDew PointF,Min DewpointF,Max Humidity, Mean Humidity, Min Humidity, Max Sea Level PressureIn, Mean Sea Level PressureIn, Min Sea Level PressureIn, Max VisibilityMiles, Mean VisibilityMiles, Min VisibilityMiles, Max Wind SpeedMPH, Mean Wind SpeedMPH, Max Gust SpeedMPH,PrecipitationIn, CloudCover, Events, WindDirDegrees
2013-3-1,40,35,30,34,28,22,94,78,60,30.13,30.10,30.07,,,,13,9,21,0.10,,,234
2013-3-2,41,37,33,36,32,23,95,84,50,30.13,29.98,29.75,,,,7,5,,0.10,,,229
2013-3-3,31,26,20,29,21,17,94,86,71,30.33,29.93,29.61,,,,10,3,18,0.21,,,79
2013-3-4,27,19,11,16,10,4,89,71,37,30.43,30.36,30.30,,,,5,3,,0.03,,,38
2013-3-5,28,20,11,15,9,3,89,67,39,30.31,30.20,30.09,,,,5,2,,0.04,,,202
2013-3-6,31,20,10,21,13,6,88,75,43,30.06,29.94,29.81,,,,9,4,,0.05,,,311
2013-3-7,31,24,17,21,16,13,90,77,53,30.11,30.02,29.91,,,,5,3,,0.06,,,91
2013-3-8,37,24,11,22,13,9,91,64,31,30.09,30.04,29.99,,,,10,3,,0.03,,,271
2013-3-9,42,26,11,17,13,8,85,55,31,30.32,30.23,30.08,,,,13,5,24,0.00,,,245
2013-3-10,39,32,24,22,17,14,76,56,38,30.28,30.16,30.03,,,,15,8,28,0.20,,,242
2013-3-11,33,29,23,22,3,-5,76,36,19,30.27,30.20,30.06,,,,8,5,,0.04,,,254
2013-3-12,35,26,18,24,15,4,77,61,47,30.26,30.06,29.94,,,,13,8,21,0.27,,,239
2013-3-13,47,39,31,33,29,25,95,68,44,30.02,29.94,29.86,,,,13,8,24,0.08,,,237
2013-3-14,41,28,15,33,19,10,88,75,61,30.12,30.05,29.98,,,,8,6,,0.01,,,84
2013-3-15,45,30,14,30,19,10,89,70,37,30.12,30.02,29.94,,,,12,5,23,0.05,,,129
2013-3-16,40,29,18,26,19,14,93,73,39,30.08,29.84,29.58,,,,9,3,20,0.02,,,189
2013-3-17,24,16,9,17,10,7,89,79,48,29.98,29.81,29.57,,,,12,6,23,0.21,,,71
2013-3-18,27,16,6,17,10,4,91,73,41,30.12,29.92,29.81,,,,9,4,,0.00,,,244
2013-3-19,33,16,0,12,4,-3,87,59,28,30.34,30.21,29.97,,,,14,4,22,0.01,,,244
2013-3-20,45,34,23,32,20,13,93,59,37,29.92,29.56,29.37,,,,12,7,23,0.00,,,246
2013-3-21,34,28,22,32,22,13,94,74,51,29.95,29.66,29.37,,,,9,7,,0.02,,,248
2013-3-22,26,20,12,17,8,0,88,64,33,30.33,30.15,29.96,,,,7,4,,0.11,,,32
2013-3-23,28,14,0,8,0,-6,84,58,24,30.48,30.40,30.33,,,,9,3,,0.01,,,272
2013-3-24,33,16,0,4,0,-5,76,50,25,30.49,30.38,30.27,,,,12,5,18,0.03,,,242
2013-3-25,40,23,6,11,4,-1,71,46,23,30.31,30.19,30.09,,,,9,4,,0.10,,,241
2013-3-26,44,28,13,17,11,6,74,49,26,30.17,30.07,29.99,,,,9,4,,0.03,,,238
2013-3-27,47,34,21,19,15,12,74,51,26,30.13,30.06,30.01,,,,8,4,,0.00,,,244
2013-3-28,49,36,23,19,17,14,78,53,26,30.17,30.10,30.04,,,,9,3,17,0.01,,,236
2013-3-29,49,36,24,23,18,15,72,50,28,30.24,30.16,30.11,,,,10,5,21,0.00,,,253
2013-3-30,51,39,27,24,21,17,84,50,27,30.28,30.18,30.11,,,,14,6,28,0.00,,,230
2013-3-31,55,44,32,26,23,20,68,48,27,30.19,30.12,30.04,,,,8,6,,0.00,,,93